Location: Broekland
(52.3610°N, 6.2005°E)
Time: 00:25:33
(UTC+00:00)

USA 59 Rocket - Pass Details

Date: 19 May 2025
Orbit: 373 x 1696 km, 63.3° (Epoch: 15 June)

Event Time Altitude Azimuth Distance (km) Brightness Sun altitude
Exits shadow 22:10:07 27° 111° (ESE) 804 0.3 -15.5°
Drops below altitude 10° 22:12:18 10° 65° (ENE) 1,402 2.0 -15.6°
Sets 22:14:23 0° 53° (NE) 2,245 3.2 -15.7°
